COSMOS 2251 DEB

Satellite information

Favourite Embed

Satellite Type and Status

DEBRISIN ORBIT

Key statistics

Satellite COSMOS 2251 DEB at a glance.

Uptime

11710

Days in orbit

Revolutions

≈ 14.1

Per day

Orbit

LEO

Low Earth Orbit

Inclination

74.1

Latest

Satellite identification and parameters

Extended collection of information and parameters for COSMOS 2251 DEB.

Object identification

Identified? True

Debris? True

Object name: COSMOS 2251 DEB

International designator: 1993-036BP

Object number (NORAD): 33822

Object ID (CCSDS): 33822

Country: COMMONWEALTH OF INDEPENDENT STATES (CIS)

Current information (Y/N): Y

RCS size: SMALL

Orbital parameters

Period: 101.989 minutes

Inclination: 74.0677 deg

SMA: 7230.942 km

Apoapsis: 966.82 km

Periapsis: 738.795 km

RAAN: 111.9636 deg

Eccentricy: 0.0157673

Argument of periapsis: 197.4958 deg

Mean anomaly: 250.0967 deg

Mean motion: 14.11921009 rev/day

Mean motion (dot): 0.00001024 rev/day2

B* drag term: 0.00051026 1/REarth

Two-line elements (TLE)

Creation date: July 8, 2025, 2:27 a.m.

Reference frame: TEME

Reference center: EARTH

Epoch: July 7, 2025, 10:25 p.m. UTC

TLE line 0: 0 COSMOS 2251 DEB

TLE line 1: 1 33822U 93036BP 25188.93417618 .00001024 00000-0 51026-3 0 9996

TLE line 2: 2 33822 74.0677 111.9636 0157673 197.4958 250.0967 14.11921009838264

Live tracking on map

Real-time ground track for satellite COSMOS 2251 DEB.

In-orbit conjunctions

A list of the most updated potential collisions computed for object COSMOS 2251 DEB.

Target Orbit TCA Probability of collision Miss distance Type
FENGYUN 1C DEB SSO 2024-11-13 03:17:44 0.000152736 745.0 (m) DEBRIS
DELTA 1 DEB SSO 2024-11-11 20:50:51 0.0004315324 398.0 (m) DEBRIS
COSMOS 1275 DEB LEO 2024-06-29 18:05:42 0.0002202278 87.0 (m) DEBRIS

Associated space launch

Military communications satellite. Destroyed in a collision with Iridium 33.

COSMOS 2251 DEB was lifted into orbit during the mission ‘Kosmos-3M | Strela-2M 51’, on board a Kosmos-3M space rocket.

The launch took place on June 16, 1993, 4:17 a.m. from 132/1 (132L).

For more information about the launch, click the button.

Launch to space Kosmos-3M | Strela-2M 51
Kosmos-3M | Strela-2M 51

Agency: N/A

Status: Launch Successful

Launch date: June 16, 1993, 4:17 a.m. UTC

Rocket: Kosmos-3M

Launch pad: 132/1 (132L)

Location: Plesetsk Cosmodrome, Russian Federation

...

Latest news about this satellite

There are no fresh news available about this satellite. Check back as we update our databases every day.


Newsletter sign-up

Weekly statistics, charts and insights to help you stay on top of the space industry.